Location: McFarlands Corners
(41.4117°N, 81.3382°W)
Time: 12:37:20
(UTC+00:00)

Courier 1B Rocket - Pass Details

Date: 24 February 2026
Orbit: 920 x 1201 km, 28.2° (Epoch: 10 March)

Event Time Altitude Azimuth Distance (km) Brightness Sun altitude
Rises 01:32:20 0° 253° (WSW) 3,547 8.8 -27.5°
Reaches altitude 10° 01:35:35 10° 237° (WSW) 2,604 7.7 -28.1°
Maximum altitude 01:40:01 20° 191° (S) 1,972 6.5 -28.9°
Enters shadow 01:40:12 20° 189° (S) 1,974 6.5 -28.9°
Drops below altitude 10° 01:44:32 10° 145° (SE) 2,653 - -29.7°
Sets 01:47:53 0° 130° (SE) 3,636 - -30.3°
